Location: *
(45.9500°N, 9.0833°E)
Time: 02:02:48
(UTC+00:00)

SR - Pass Details

Date: 21 June 2021
Orbit: 577 x 878 km, 66.7° (Epoch: 23 July)

Event Time Altitude Azimuth Distance (km) Brightness Sun altitude
Rises 13:59:28 0° 163° (SSE) 3,443 ? 51.7°
Reaches altitude 10° 14:02:43 10° 146° (SE) 2,524 ? 51.2°
Maximum altitude 14:06:31 18° 105° (ESE) 2,018 ? 50.6°
Drops below altitude 10° 14:10:19 10° 64° (ENE) 2,519 ? 50.0°
Sets 14:13:32 0° 47° (NE) 3,435 ? 49.5°
